Regional Weather Roundup
Issued by NWS

Home | Current Version | Previous Version | Text Only | Print | Product List | Glossary Off
Versions: 1 2 3 4 5 6 7 8 9 10 11 12 13 14 15 16 17 18 19 20 21 22 23 24 25 26 27 28 29 30 31 32 33 34 35 36 37 38 39 40 41 42 43 44 45 46 47 48 49 50

000
ASUS43 KTOP 232308
RWRKS

WEATHER ROUNDUP FOR KANSAS
NATIONAL WEATHER SERVICE GOODLAND KS
600 PM CDT TUE AUG 23 2016

NOTE:  "FAIR" INDICATES FEW OR NO CLOUDS BELOW 12,000 FEET WITH NO
SIGNIFICANT WEATHER AND/OR OBSTRUCTIONS TO VISIBILITY.

KSZ001>006-013>018-027>032-041>047-240000-
NORTHWEST KANSAS

CITY           SKY/WX    TMP DP  RH WIND       PRES   REMARKS
GOODLAND       SUNNY     92  39  15 NE10      29.92R
HAYS           SUNNY     99  54  22 SW15      29.79R HX  96
HILL CITY      SUNNY     95  59  30 VRB3      29.79F
RUSSELL        SUNNY     94  65  38 S22G30    29.78S HX  96
$$

KSZ061>065-074>080-084>089-240000-
SOUTHWEST KANSAS

CITY           SKY/WX    TMP DP  RH WIND       PRES   REMARKS
DODGE CITY     SUNNY     97  47  18 W13       29.85S
ELKHART          N/A     95  50  21 W5          N/A
GARDEN CITY    SUNNY     96  48  19 SW5       29.85S
GREAT BEND     SUNNY     95  64  36 S24G33    29.80S HX  97
LIBERAL        SUNNY     97  50  20 W9        29.88S
PRATT          CLOUDY    88  66  48 S16G26    29.85F
$$

KSZ066>073-081>083-090>101-240000-
SOUTHEAST KANSAS

CITY           SKY/WX    TMP DP  RH WIND       PRES   REMARKS
CHANUTE        PTSUNNY   86  72  62 S22G30    29.96F
COFFEYVILLE    MOSUNNY   87  72  60 S18G28    29.96F
HUTCHINSON     SUNNY     92  70  48 S23G33    29.85F HX  97
MEDICINE LODGE   N/A     92  67  43 S22G33    29.84S HX  95
NEWTON         SUNNY     86  73  65 S28G33    29.89F
PARSONS        MOSUNNY   85  71  63 S13G22    29.98F
WICHITA INTL   PTSUNNY   90  72  55 S20G29    29.89S HX  97
WICHITA JABRA  SUNNY     86  74  67 S18G26    29.90S
WICHITA MCCONL MOSUNNY   87  72  60 S22       29.90S
WINFIELD       MOSUNNY   86  73  65 S21G32    29.93F
$$

KSZ007>012-019>026-033>040-048>060-102>105-240000-
NORTHEAST KANSAS

CITY           SKY/WX    TMP DP  RH WIND       PRES   REMARKS
CONCORDIA      TSTM      81  72  74 S8        29.84R
EMPORIA        PTSUNNY   85  71  63 S18G30    29.92S
LAWRENCE       MOSUNNY   85  73  67 S17G25    29.92F
MANHATTAN      MOSUNNY   86  71  60 S21G29    29.85S
MARYSVILLE     PTSUNNY   86  72  62 S18       29.85S
OLATHE IND     PTSUNNY   83  73  72 S15G26    29.96F
OLATHE EXE     PTSUNNY   82  72  71 S20G28    29.96F
SALINA         SUNNY     93  71  48 S24G36    29.82F HX 100
TOPEKA BILLARD PTSUNNY   85  72  65 S16G29    29.91F
TOPEKA FORBES  PTSUNNY   86  72  62 S21G29    29.91F
$$



USA.gov is the U.S. government's official web portal to all federal, state and local government web resources and services.